Theta_e
361 358 360 357 364 358 356 359 357 354 349 352 350 350 342 344 344 347 348 356 355 354 355 355 356 354 355 355 355 354 351 351 353 352 352 353 352 351 349 348 346 349 348
363 364 360 360 361 357 351 356 359 355 353 351 347 348 344 344 346 349 348 352 357 354 354 355 356 357 356 356 356 354 355 350 350 354 352 354 352 352 351 349 347 349 350
363 365 358 363 359 360 362 363 357 357 350 349 350 350 342 346 347 345 347 348 352 358 356 354 355 357 357 357 356 356 356 357 355 354 354 354 351 354 353 352 350 349 351
364 364 359 358 364 361 357 358 354 351 352 346 344 345 343 343 344 345 346 352 349 348 355 357 354 355 356 357 357 358 357 356 357 358 356 355 354 353 354 353 353 353 352
365 364 360 359 366 360 355 354 352 351 343 343 342 342 343 343 344 341 344 347 346 349 347 358 357 355 353 354 354 354 357 357 357 357 355 355 355 354 356 355 354 354 354
364 365 362 363 362 357 359 359 358 349 345 341 337 341 342 344 346 343 341 345 344 349 350 353 352 351 357 354 353 355 353 353 355 355 355 355 356 355 354 353 354 355 354
365 368 363 361 362 361 360 356 356 351 344 344 340 339 341 344 345 341 344 340 343 345 346 347 350 352 351 354 350 352 352 351 351 352 351 352 352 352 351 351 350 348 349
367 367 372 357 365 362 362 358 357 350 345 343 345 342 336 336 341 339 345 342 344 341 341 344 346 349 353 354 356 354 354 354 353 353 352 351 350 349 348 347 345 345 342
366 371 367 365 365 362 363 363 358 354 345 340 350 349 338 334 332 338 341 343 343 340 341 343 345 347 348 341 345 350 352 351 346 341 340 341 342 341 340 340 339 338 337
366 367 367 364 367 363 367 363 357 358 355 343 339 341 349 350 336 331 338 341 343 341 344 342 343 344 345 339 341 346 346 346 345 342 340 338 338 337 336 335 335 335 335
367 364 370 371 370 363 371 364 363 362 355 348 341 339 344 337 343 343 334 336 340 341 344 343 343 343 345 341 340 337 343 343 343 342 340 338 336 335 335 335 336 337 339
362 370 368 373 373 369 366 363 367 364 361 355 346 343 338 336 335 335 334 340 338 344 341 343 343 342 344 344 344 342 343 342 341 341 337 337 337 336 337 337 337 338 340
352 365 371 372 364 372 370 372 373 366 362 357 357 344 343 340 340 338 337 337 336 338 340 341 342 343 342 344 344 343 344 341 340 339 339 338 337 337 337 338 339 340 341
354 370 371 371 371 371 368 374 364 362 365 359 358 357 346 343 342 339 336 334 332 333 337 341 342 341 343 343 344 347 340 339 339 339 338 338 338 339 340 341 341 340 340
357 367 369 370 369 370 372 374 361 366 365 362 361 359 350 345 344 342 341 339 335 329 332 342 336 350 343 343 347 346 347 341 339 338 338 337 338 338 338 339 340 340 341
371 372 368 367 368 371 372 373 365 369 366 359 354 362 357 343 347 344 342 340 338 334 329 338 339 344 346 341 346 346 345 346 342 339 338 336 336 337 337 337 337 338 339
375 371 372 369 370 370 371 372 369 368 365 364 362 362 359 361 343 343 343 342 340 338 332 335 339 350 352 348 346 346 346 349 342 338 338 336 336 335 335 336 336 337 337
374 374 375 372 371 370 371 370 367 361 365 362 360 360 356 349 358 357 345 356 346 350 338 350 346 343 350 354 352 354 346 340 342 337 340 337 335 334 334 333 334 333 333
374 372 372 373 371 370 370 371 370 367 367 365 363 361 357 356 358 347 347 346 343 345 346 339 338 341 343 345 347 352 351 350 343 337 334 335 332 331 331 330 329 327 324
374 373 373 373 373 371 370 369 369 369 367 365 365 364 361 358 356 357 353 352 352 346 345 341 338 337 339 348 342 338 343 343 341 340 338 334 338 334 331 328 327 326 321
374 374 372 372 374 372 366 369 368 368 368 366 366 366 364 358 348 351 349 351 350 347 339 338 338 337 336 341 338 339 338 344 345 342 340 339 340 337 335 330 333 330 326
374 374 373 372 372 369 347 341 359 367 369 368 365 367 366 351 347 337 338 338 347 353 347 339 339 339 352 347 341 338 340 339 331 346 339 338 347 335 336 337 332 333 327
373 373 372 372 371 372 338 335 341 366 367 367 367 367 364 358 352 356 336 335 334 334 340 352 347 347 354 354 353 350 347 340 337 338 344 335 342 333 334 329 328 326 322
372 372 372 373 372 371 339 330 336 361 364 366 367 367 368 364 360 358 356 348 348 348 347 345 351 351 354 356 352 351 350 348 343 340 345 330 335 332 331 330 329 325 321
371 371 372 372 372 372 335 328 333 358 360 362 366 367 368 367 348 335 357 354 350 349 335 331 332 332 332 335 338 345 337 336 331 333 340 332 330 327 326 326 329 324 321
370 369 369 372 360 371 340 326 332 358 357 358 363 366 340 360 337 327 354 355 350 346 348 344 340 334 335 337 330 345 341 332 336 329 340 330 328 324 319 325 325 326 323
Wind_Speed
4 5 2 4 3 3 2 1 2 2 7 5 7 8 4 5 5 8 8 14 9 7 8 8 9 9 8 8 8 8 6 6 5 5 5 5 5 5 3 2 2 2 3
3 2 2 2 3 4 5 1 3 2 7 5 2 7 3 6 5 7 8 10 13 10 8 9 9 10 9 9 8 8 8 8 8 7 6 5 6 5 4 4 3 4 4
4 6 3 2 1 3 2 3 3 5 7 1 5 5 5 7 3 3 8 10 10 11 11 8 9 9 9 9 10 10 10 9 9 7 7 8 6 7 7 6 6 5 5
3 6 2 2 3 1 1 3 2 6 9 8 2 7 1 5 5 5 3 4 8 9 9 11 8 9 9 11 10 11 10 9 10 10 9 9 8 8 9 8 8 7 7
7 7 4 2 5 4 3 2 4 4 4 4 7 4 5 2 3 5 7 4 4 7 4 11 12 9 8 8 8 8 10 9 9 10 9 8 8 8 8 7 8 8 8
7 6 5 2 3 2 1 1 5 4 3 3 4 7 3 2 1 4 5 7 6 6 7 9 9 8 10 6 4 5 5 6 7 9 9 7 7 8 9 9 8 7 8
8 7 6 5 4 4 3 2 6 3 2 1 6 6 9 8 4 3 7 5 4 8 8 5 4 4 6 7 3 0 0 1 2 4 4 4 6 7 6 7 4 6 8
9 7 8 4 7 5 2 1 1 3 3 2 3 3 2 7 5 3 5 4 6 6 6 4 5 2 7 5 8 8 7 7 7 8 10 10 8 7 6 4 3 3 4
10 9 8 7 1 3 6 5 5 4 2 3 6 1 2 2 7 6 5 7 2 5 5 3 5 3 4 8 7 9 8 8 9 11 10 9 7 8 7 5 5 4 3
11 11 9 8 6 7 6 5 4 3 4 5 4 4 3 3 4 4 6 5 4 3 4 4 7 7 3 6 13 13 9 8 9 10 9 8 7 6 5 5 3 2 1
11 12 10 10 8 8 4 2 5 5 4 5 4 4 3 4 3 2 2 8 5 4 7 3 2 7 5 5 8 9 9 8 8 8 8 7 5 3 2 1 1 3 5
11 11 11 9 8 8 6 7 6 6 7 4 4 2 4 6 5 4 4 5 7 3 4 5 5 4 5 7 6 17 12 9 8 8 7 6 4 3 2 2 2 3 5
11 13 13 9 10 10 8 7 7 6 7 6 5 4 5 4 3 3 4 3 1 5 4 5 5 5 4 4 9 16 15 12 10 9 7 6 6 6 5 5 6 7 8
10 9 14 12 13 11 10 8 8 8 8 8 8 7 6 5 4 4 4 4 3 3 3 4 3 4 6 5 4 8 10 15 14 12 10 10 8 7 7 8 8 9 10
10 10 12 12 12 12 11 10 9 10 7 9 9 8 8 6 5 5 5 4 5 5 5 7 4 6 2 7 8 8 8 14 14 12 10 9 9 9 9 9 10 10 10
12 8 12 12 13 13 12 12 11 10 9 9 9 10 8 9 6 6 6 5 5 5 6 5 5 5 5 4 9 5 6 10 11 11 11 10 8 8 8 9 10 8 7
13 14 13 14 14 14 13 12 12 10 13 11 10 9 11 9 8 7 7 6 6 6 6 6 3 6 5 4 4 5 7 6 7 15 12 9 7 8 10 10 8 7 7
16 15 14 15 15 15 14 14 15 14 13 14 13 12 11 10 10 8 7 7 7 6 7 5 6 4 7 8 6 6 6 8 5 11 9 9 10 10 7 6 6 7 6
17 17 17 16 17 17 16 15 15 15 14 14 14 14 13 12 11 11 10 8 9 7 6 8 8 7 5 7 8 6 6 8 6 15 12 11 11 9 8 9 8 7 8
19 19 18 18 18 18 18 18 18 17 17 15 16 15 15 14 13 13 10 11 8 8 9 8 8 8 6 6 6 7 5 7 7 4 6 9 10 14 13 12 13 12 9
18 19 19 19 19 19 17 19 19 19 17 17 16 15 15 15 16 14 11 11 11 10 9 9 9 8 8 4 6 6 6 3 4 3 5 5 6 8 10 13 13 12 8
20 20 20 20 20 16 19 19 18 16 17 17 16 15 16 17 17 18 16 12 13 11 11 9 8 9 7 5 6 6 4 2 5 2 3 6 2 8 5 4 11 9 9
18 20 20 20 21 21 18 21 22 18 17 18 18 16 16 15 17 16 15 16 13 12 13 10 9 8 4 5 6 4 5 6 6 6 4 7 4 7 6 8 14 14 11
19 18 19 20 19 19 18 20 23 23 18 18 19 20 17 17 17 19 17 18 18 15 13 12 9 6 7 6 2 4 4 4 6 7 7 7 5 7 6 5 11 9 8
18 19 18 20 22 20 21 21 19 21 21 21 19 19 19 19 19 22 19 19 17 17 12 12 6 6 2 7 5 6 7 6 8 5 8 8 7 4 6 6 2 12 12
17 15 19 20 22 22 20 23 22 17 19 17 20 21 23 24 21 24 21 17 17 17 16 12 10 7 8 8 13 9 6 8 6 8 2 6 6 4 7 6 4 5 7
Wind_Direction
146 68 301 152 197 209 99 210 48 33 23 33 29 325 110 35 30 127 127 148 163 171 181 180 178 182 186 185 194 197 192 187 182 199 192 194 208 212 205 234 282 302 317
119 266 320 284 69 97 256 108 53 312 172 116 128 326 138 128 147 71 138 146 162 170 172 184 190 188 197 200 203 202 203 208 210 206 211 214 221 227 233 257 267 282 292
136 318 257 223 9 85 189 130 216 54 308 81 53 285 107 55 138 62 169 144 152 170 164 172 187 202 209 208 205 217 219 218 220 228 231 223 226 232 241 243 256 267 278
209 231 354 57 71 267 312 128 301 155 238 126 166 233 97 86 136 178 79 109 136 141 167 153 164 190 207 216 219 223 226 222 234 231 232 233 233 236 237 243 248 254 263
204 254 196 5 136 272 41 161 211 266 117 178 180 199 109 141 287 141 123 171 100 122 137 158 161 176 189 207 225 234 237 228 229 241 241 244 253 255 257 252 260 268 267
210 226 251 155 293 199 348 198 1 47 351 1 348 87 94 211 199 74 165 154 152 84 145 158 162 172 188 187 219 224 243 243 227 239 248 250 264 273 285 285 280 279 315
211 213 250 189 207 298 81 131 191 176 147 210 177 157 132 194 161 158 89 215 142 125 199 86 95 184 163 147 124 110 294 305 260 238 249 261 262 264 269 276 346 23 352
215 219 255 141 214 117 122 191 311 287 125 183 272 85 350 158 170 92 19 92 358 117 110 75 68 6 172 139 99 79 73 76 72 64 69 70 74 77 81 84 71 57 30
218 217 203 253 227 277 164 185 185 284 98 180 318 79 170 298 157 150 210 105 212 109 101 108 94 86 32 76 139 115 91 88 91 91 92 96 95 94 95 97 99 100 92
214 206 207 217 220 230 129 149 185 284 274 156 186 240 22 308 54 184 139 134 224 174 115 221 128 117 127 108 75 87 109 103 107 110 116 125 120 127 127 126 124 127 111
208 213 197 200 198 226 184 247 137 223 181 292 215 165 191 248 245 309 231 161 196 197 160 230 152 149 167 143 137 124 132 135 138 141 142 135 138 126 105 63 13 352 347
190 219 209 199 202 223 202 192 207 198 249 220 288 196 189 208 194 247 239 164 178 192 198 186 168 257 165 171 97 142 159 168 175 172 168 173 169 179 206 238 270 299 308
210 189 202 195 200 211 220 208 191 224 199 221 226 227 237 247 280 248 277 296 271 173 163 231 206 205 231 225 151 156 168 184 197 198 200 207 214 225 244 265 277 291 296
210 203 183 195 207 208 209 202 210 215 196 206 212 240 267 221 232 229 250 265 191 236 177 235 188 201 193 221 127 179 182 185 196 201 208 220 234 245 253 261 275 275 274
232 188 183 192 208 215 200 206 221 192 223 200 202 212 240 244 212 225 224 251 275 284 222 151 229 168 232 190 188 209 234 183 198 200 207 219 230 234 244 250 254 263 271
218 210 184 195 206 204 207 204 206 214 197 205 223 191 217 238 220 223 233 230 244 270 290 142 186 167 176 233 147 208 239 151 185 197 202 218 228 243 247 253 257 264 269
212 216 188 195 201 207 204 202 226 216 195 209 222 211 200 239 250 212 224 236 235 238 251 259 189 137 155 237 198 198 210 221 216 195 200 201 205 230 236 240 250 260 262
212 200 207 197 202 207 207 206 209 225 200 208 211 220 211 210 231 257 240 221 230 231 249 246 273 172 200 186 234 233 264 270 283 159 170 190 206 220 232 256 256 250 252
210 212 203 203 203 207 208 208 211 218 221 208 212 210 211 211 212 223 221 229 215 233 221 252 259 221 231 194 200 233 242 241 258 154 182 189 204 218 217 223 229 235 236
207 209 206 207 206 208 209 208 207 212 219 214 211 212 208 211 215 209 225 219 249 225 213 236 241 253 225 211 210 247 215 229 245 240 192 224 199 211 218 219 221 225 225
205 207 209 209 209 210 210 210 212 211 214 220 213 212 214 210 206 210 209 216 210 220 236 217 232 249 246 202 185 212 227 229 192 247 259 287 251 214 225 224 235 221 191
205 206 209 210 211 215 211 201 210 216 215 219 219 211 220 201 203 197 204 230 208 210 220 234 235 238 249 241 236 245 251 247 279 267 269 269 258 263 278 241 145 142 162
204 209 211 212 214 216 210 198 197 214 216 218 217 216 212 215 200 205 206 215 229 226 225 217 245 266 304 251 250 232 260 292 289 285 201 262 270 293 315 124 153 165 166
212 211 212 214 217 219 208 199 195 211 220 220 218 218 216 216 201 202 200 209 219 220 218 221 221 234 246 268 273 240 257 275 253 253 250 265 278 286 308 315 163 158 153
211 214 215 215 218 221 201 199 191 213 221 225 224 217 217 213 209 186 200 205 209 215 202 203 211 83 104 159 208 228 220 213 248 258 202 242 266 287 290 290 293 165 197
215 214 217 218 220 223 208 196 191 216 218 222 225 226 206 212 201 185 197 200 208 204 198 189 187 169 175 189 168 195 232 237 258 275 165 219 261 301 289 295 296 225 235